| time (UTC) | temp F | wind direction | speed MPH | gust MPH | rain 1hr in | rain 24hr in | rain mn in | humidity % | barometer mb |
| 20260508233027 | 68 | 138 | 2.0 | 6.0 | 0.00 | 0.00 | 0.00 | 41 | 1011.9 |
| 20260508231525 | 69 | 132 | 3.0 | 9.0 | 0.00 | 0.00 | 0.00 | 37 | 1011.7 |
| 20260508230007 | 69 | 112 | 5.0 | 14.0 | 0.00 | 0.00 | 0.00 | 38 | 1011.6 |
| 20260508224510 | 70 | 155 | 6.0 | 18.0 | 0.00 | 0.00 | 0.00 | 35 | 1011.5 |
| 20260508223010 | 70 | 167 | 8.0 | 16.0 | 0.00 | 0.00 | 0.00 | 37 | 1011.5 |
| 20260508221505 | 70 | 157 | 7.0 | 16.0 | 0.00 | 0.00 | 0.00 | 37 | 1011.5 |
| 20260508220010 | 70 | 161 | 3.0 | 13.0 | 0.00 | 0.00 | 0.00 | 36 | 1011.6 |
| 20260508214507 | 70 | 154 | 3.0 | 14.0 | 0.00 | 0.00 | 0.00 | 36 | 1011.6 |
| 20260508213003 | 70 | 108 | 7.0 | 16.0 | 0.00 | 0.00 | 0.00 | 37 | 1011.7 |
| 20260508211504 | 70 | 155 | 8.0 | 16.0 | 0.00 | 0.00 | 0.00 | 36 | 1011.8 |
| 20260508210011 | 70 | 165 | 8.0 | 16.0 | 0.00 | 0.00 | 0.00 | 35 | 1011.8 |
| 20260508204518 | 70 | 166 | 2.0 | 14.0 | 0.00 | 0.00 | 0.00 | 35 | 1011.8 |
| 20260508203013 | 69 | 207 | 3.0 | 14.0 | 0.00 | 0.00 | 0.00 | 36 | 1012.0 |
| 20260508201506 | 69 | 150 | 7.0 | 14.0 | 0.00 | 0.00 | 0.00 | 35 | 1012.0 |
| 20260508200005 | 69 | 163 | 8.0 | 17.0 | 0.00 | 0.00 | 0.00 | 37 | 1012.3 |
| 20260508194505 | 68 | 148 | 9.0 | 18.0 | 0.00 | 0.00 | 0.00 | 36 | 1012.6 |
| 20260508193035 | 67 | 138 | 4.0 | 16.0 | 0.00 | 0.00 | 0.00 | 37 | 1012.6 |
| 20260508191524 | 67 | 135 | 6.0 | 14.0 | 0.00 | 0.00 | 0.00 | 43 | 1013.0 |
| 20260508190004 | 67 | 140 | 7.0 | 11.0 | 0.00 | 0.00 | 0.00 | 39 | 1013.2 |
| 20260508184512 | 67 | 174 | 5.0 | 17.0 | 0.00 | 0.00 | 0.00 | 40 | 1013.5 |
| 20260508183010 | 67 | 135 | 4.0 | 10.0 | 0.00 | 0.00 | 0.00 | 38 | 1013.6 |
| 20260508181520 | 67 | 144 | 5.0 | 18.0 | 0.00 | 0.00 | 0.00 | 42 | 1013.7 |
| 20260508180028 | 66 | 214 | 1.0 | 14.0 | 0.00 | 0.00 | 0.00 | 35 | 1013.9 |
| 20260508174507 | 65 | 143 | 6.0 | 11.0 | 0.00 | 0.00 | 0.00 | 40 | 1014.1 |
| 20260508173013 | 64 | 144 | 4.0 | 11.0 | 0.00 | 0.00 | 0.00 | 39 | 1014.2 |
| 20260508171519 | 64 | 174 | 2.0 | 6.0 | 0.00 | 0.00 | 0.00 | 40 | 1014.4 |
| 20260508170015 | 64 | 78 | 3.0 | 11.0 | 0.00 | 0.00 | 0.00 | 40 | 1014.7 |
| 20260508164508 | 63 | 166 | 5.0 | 11.0 | 0.00 | 0.00 | 0.00 | 40 | 1014.8 |
| 20260508163011 | 63 | 274 | 4.0 | 12.0 | 0.00 | 0.00 | 0.00 | 42 | 1015.3 |
| 20260508161530 | 62 | 165 | 1.0 | 7.0 | 0.00 | 0.00 | 0.00 | 44 | 1015.4 |
| 20260508160031 | 61 | 186 | 2.0 | 5.0 | 0.00 | 0.00 | 0.00 | 48 | 1015.6 |
| 20260508154523 | 61 | 138 | 1.0 | 8.0 | 0.00 | 0.00 | 0.00 | 44 | 1015.7 |
| 20260508153033 | 60 | 186 | 3.0 | 17.0 | 0.00 | 0.00 | 0.00 | 46 | 1015.7 |
| 20260508151531 | 60 | 190 | 6.0 | 9.0 | 0.00 | 0.00 | 0.00 | 48 | 1015.9 |
| 20260508150025 | 59 | 178 | 1.0 | 6.0 | 0.00 | 0.00 | 0.00 | 48 | 1015.8 |
| 20260508144523 | 59 | 144 | 3.0 | 11.0 | 0.00 | 0.00 | 0.00 | 50 | 1016.0 |
| 20260508143026 | 59 | 127 | 1.0 | 8.0 | 0.00 | 0.00 | 0.00 | 49 | 1016.0 |
| 20260508141522 | 58 | 5 | 1.0 | 9.0 | 0.00 | 0.00 | 0.00 | 46 | 1016.0 |
| 20260508140004 | 57 | 143 | 2.0 | 5.0 | 0.00 | 0.00 | 0.00 | 48 | 1016.2 |
| 20260508134506 | 57 | 182 | 4.0 | 7.0 | 0.00 | 0.00 | 0.00 | 50 | 1016.5 |
| 20260508133004 | 56 | 132 | 3.0 | 7.0 | 0.00 | 0.00 | 0.00 | 49 | 1016.4 |
| 20260508131507 | 55 | 166 | 0.0 | 4.0 | 0.00 | 0.00 | 0.00 | 57 | 1016.6 |
| 20260508130007 | 54 | 157 | 0.0 | 3.0 | 0.00 | 0.00 | 0.00 | 60 | 1016.6 |
| 20260508124507 | 53 | 163 | 2.0 | 5.0 | 0.00 | 0.00 | 0.00 | 63 | 1016.5 |
| 20260508123009 | 50 | 139 | 2.0 | 4.0 | 0.00 | 0.00 | 0.00 | 78 | 1016.5 |
| 20260508121508 | 47 | 247 | 0.0 | 0.0 | 0.00 | 0.00 | 0.00 | 94 | 1016.4 |
| 20260508120005 | 45 | 57 | 0.0 | 1.0 | 0.00 | 0.00 | 0.00 | 95 | 1015.9 |
| 20260508114507 | 44 | 246 | 0.0 | 1.0 | 0.00 | 0.00 | 0.00 | 95 | 1015.8 |
| 20260508113010 | 43 | 277 | 0.0 | 2.0 | 0.00 | 0.00 | 0.00 | 95 | 1015.8 |
| 20260508111504 | 42 | 148 | 0.0 | 1.0 | 0.00 | 0.00 | 0.00 | 95 | 1015.8 |
| 20260508110008 | 41 | 271 | 0.0 | 1.0 | 0.00 | 0.00 | 0.00 | 94 | 1015.6 |
| 20260508104502 | 41 | 360 | 0.0 | 2.0 | 0.00 | 0.00 | 0.00 | 93 | 1015.2 |
| 20260508103004 | 41 | 36 | 0.0 | 1.0 | 0.00 | 0.00 | 0.00 | 94 | 1014.9 |
| 20260508101503 | 41 | 95 | 0.0 | 0.0 | 0.00 | 0.00 | 0.00 | 92 | 1014.6 |
| 20260508100008 | 41 | 36 | 0.0 | 0.0 | 0.00 | 0.00 | 0.00 | 92 | 1014.2 |
| 20260508094507 | 42 | 94 | 0.0 | 1.0 | 0.00 | 0.00 | 0.00 | 93 | 1014.1 |
| 20260508093008 | 42 | 19 | 0.0 | 1.0 | 0.00 | 0.00 | 0.00 | 92 | 1014.1 |
| 20260508091509 | 43 | 19 | 0.0 | 1.0 | 0.00 | 0.00 | 0.00 | 93 | 1014.2 |
| 20260508090012 | 43 | 19 | 0.0 | 0.0 | 0.00 | 0.00 | 0.00 | 93 | 1014.1 |
| 20260508084514 | 43 | 19 | 0.0 | 0.0 | 0.00 | 0.00 | 0.00 | 93 | 1014.0 |
| 20260508083026 | 44 | 19 | 0.0 | 0.0 | 0.00 | 0.00 | 0.00 | 92 | 1013.9 |
| 20260508081512 | 44 | 19 | 0.0 | 0.0 | 0.00 | 0.00 | 0.00 | 92 | 1013.8 |
| 20260508080003 | 44 | 19 | 0.0 | 1.0 | 0.00 | 0.00 | 0.00 | 92 | 1013.6 |
| 20260508074506 | 45 | 19 | 0.0 | 0.0 | 0.00 | 0.00 | 0.00 | 92 | 1013.6 |
| 20260508073012 | 46 | 19 | 0.0 | 1.0 | 0.00 | 0.00 | 0.00 | 93 | 1013.6 |
| 20260508071525 | 46 | 19 | 0.0 | 2.0 | 0.00 | 0.01 | 0.00 | 93 | 1013.4 |
| 20260508070019 | 46 | 87 | 0.0 | 2.0 | 0.00 | 0.01 | 0.00 | 92 | 1013.3 |
| 20260508064503 | 47 | 87 | 0.0 | 1.0 | 0.00 | 0.01 | 0.00 | 93 | 1013.0 |
| 20260508063012 | 47 | 87 | 0.0 | 0.0 | 0.00 | 0.01 | 0.00 | 92 | 1012.8 |
| 20260508061509 | 48 | 87 | 0.0 | 0.0 | 0.00 | 0.01 | 0.00 | 92 | 1012.7 |
| 20260508060027 | 48 | 87 | 0.0 | 0.0 | 0.00 | 0.01 | 0.00 | 91 | 1012.5 |
| 20260508054523 | 48 | 87 | 0.0 | 0.0 | 0.00 | 0.01 | 0.00 | 91 | 1012.6 |
| 20260508053010 | 49 | 87 | 0.0 | 1.0 | 0.00 | 0.01 | 0.00 | 91 | 1012.5 |
| 20260508051512 | 50 | 87 | 0.0 | 4.0 | 0.00 | 0.02 | 0.00 | 91 | 1012.6 |
| 20260508050015 | 50 | 164 | 0.0 | 4.0 | 0.00 | 0.03 | 0.00 | 91 | 1012.5 |
| 20260508044504 | 50 | 182 | 1.0 | 4.0 | 0.00 | 0.03 | 0.00 | 90 | 1012.4 |
| 20260508043007 | 50 | 183 | 0.0 | 3.0 | 0.00 | 0.03 | 0.00 | 90 | 1012.2 |
| 20260508041508 | 51 | 126 | 0.0 | 2.0 | 0.00 | 0.04 | 0.00 | 90 | 1012.1 |
| 20260508040004 | 51 | 234 | 0.0 | 2.0 | 0.00 | 0.05 | 0.00 | 90 | 1012.0 |
| 20260508034504 | 51 | 215 | 0.0 | 1.0 | 0.00 | 0.06 | 0.05 | 88 | 1011.9 |
| 20260508033006 | 51 | 155 | 2.0 | 4.0 | 0.00 | 0.06 | 0.05 | 89 | 1011.8 |
| 20260508031508 | 51 | 182 | 2.0 | 4.0 | 0.00 | 0.06 | 0.05 | 88 | 1011.8 |
| 20260508030016 | 52 | 153 | 1.0 | 4.0 | 0.00 | 0.06 | 0.05 | 88 | 1011.7 |
| 20260508024508 | 52 | 148 | 1.0 | 4.0 | 0.00 | 0.06 | 0.05 | 88 | 1011.7 |
| 20260508023006 | 52 | 158 | 1.0 | 5.0 | 0.00 | 0.06 | 0.05 | 87 | 1011.7 |
| 20260508021505 | 52 | 171 | 0.0 | 4.0 | 0.00 | 0.06 | 0.05 | 86 | 1011.7 |
| 20260508020004 | 52 | 159 | 2.0 | 4.0 | 0.00 | 0.06 | 0.05 | 85 | 1011.6 |
| 20260508014516 | 53 | 196 | 2.0 | 5.0 | 0.00 | 0.06 | 0.05 | 85 | 1011.4 |
| 20260508013003 | 53 | 166 | 2.0 | 6.0 | 0.00 | 0.06 | 0.05 | 84 | 1011.3 |
| 20260508011504 | 53 | 150 | 2.0 | 5.0 | 0.00 | 0.06 | 0.05 | 84 | 1011.1 |
| 20260508010013 | 53 | 153 | 2.0 | 5.0 | 0.00 | 0.06 | 0.05 | 82 | 1011.1 |
| 20260508004507 | 54 | 138 | 1.0 | 5.0 | 0.00 | 0.06 | 0.05 | 80 | 1010.9 |
| 20260508003005 | 54 | 143 | 1.0 | 5.0 | 0.00 | 0.06 | 0.05 | 80 | 1010.8 |
| 20260508001504 | 55 | 9 | 0.0 | 3.0 | 0.00 | 0.06 | 0.05 | 78 | 1010.5 |
| 20260508000006 | 55 | 168 | 1.0 | 6.0 | 0.00 | 0.06 | 0.05 | 77 | 1010.2 |
| 20260507234515 | 55 | 131 | 2.0 | 5.0 | 0.00 | 0.06 | 0.05 | 77 | 1010.1 |